Sarasota, FL

1:55 PM EST on December 15, 2019 (GMT -0500)
Sarasota-bradenton

Weather History for KSRQ - August, 2019

Change the Weather History Date:

Friday, August 23, 2019

  Actual Average Record
Temperature  
Mean Temperature 85 °F 82 °F  
Max Temperature 93 °F 90 °F 99 °F (2016)
Min Temperature 77 °F 75 °F 68 °F (1970)
Degree Days  
Heating Degree Days 0 0  
Month to date heating degree days 0 0  
Since 1 June heating degree days 0 0  
Since 1 July heating degree days 0 0  
Cooling Degree Days 20 17  
Month to date cooling degree days 421 391  
Year to date cooling degree days 2692 2153  
Since 1 June cooling degree days 1535 1402  
Growing Degree Days 35 (Base 50)    
Moisture  
Dew Point 75 °F    
Average Humidity 74    
Maximum Humidity 94    
Minimum Humidity 57    
Precipitation  
Precipitation T in 0.32 in 4.92 in (2010)
Month to date precipitation 12.42 6.84  
Year to date precipitation 40.95 36.03  
Sea Level Pressure  
Sea Level Pressure 29.96 in    
Wind  
Wind Speed 6 mph ()    
Max Wind Speed 16 mph    
Max Gust Speed 21 mph    
Visibility 10.0 miles    
Events Rain , Thunderstorm    
T = Trace of Precipitation, MM = Missing Value Source: Averaged Metar Reports

Daily Weather History Graph

Daily Weather History Graph

Search for Another Location

Airport or City:

Astronomy

Aug. 23, 2019 Rise Set
Actual Time 7:04 AM EDT 8:00 PM EDT
Civil Twilight 6:40 AM EDT 8:24 PM EDT
Nautical Twilight 6:12 AM EDT 8:52 PM EDT
Astronomical Twilight 5:43 AM EDT 9:21 PM EDT
Moon 12:27 AM EDT (8/23) 2:01 PM EDT (8/23)
Length of Visible Light 13h 43m
Length of Day
12h 55m
Waning Gibbous, 50% of the Moon is Illuminated
Aug 23
Waning Gibbous
Aug 30
New
Sep 5
First Quarter
Sep 14
Full
Sep 21
Last Quarter

Hourly Weather History & Observations

Time (EDT) Temp. Heat Index Dew Point Humidity Pressure Visibility Wind Dir Wind Speed Gust Speed Precip Events Conditions
12:53 AM 79.0 °F - 75.0 °F 88% 30.00 in 10.0 mi ESE 4.6 mph - N/A   Clear
1:53 AM 79.0 °F - 75.0 °F 88% 29.99 in 10.0 mi East 5.8 mph - N/A   Clear
2:53 AM 78.1 °F - 75.0 °F 90% 29.97 in 10.0 mi ENE 4.6 mph - N/A   Clear
3:53 AM 78.1 °F - 75.0 °F 90% 29.96 in 10.0 mi East 3.5 mph - N/A   Clear
4:25 AM 78.1 °F - 75.0 °F 90% 29.96 in 10.0 mi Calm Calm - N/A   Partly Cloudy
4:53 AM 77.0 °F - 75.0 °F 94% 29.96 in 10.0 mi NE 4.6 mph - N/A   Clear
5:53 AM 77.0 °F - 75.0 °F 94% 29.96 in 10.0 mi NE 3.5 mph - N/A   Clear
6:53 AM 77.0 °F - 75.0 °F 94% 29.98 in 10.0 mi NE 4.6 mph - N/A   Clear
7:53 AM 78.1 °F - 75.9 °F 93% 29.99 in 10.0 mi NE 5.8 mph - N/A   Clear
8:53 AM 82.9 °F 90.8 °F 75.9 °F 79% 29.99 in 10.0 mi NE 8.1 mph - N/A   Clear
9:53 AM 84.9 °F 94.1 °F 75.9 °F 74% 30.00 in 10.0 mi NE 9.2 mph - N/A   Scattered Clouds
10:22 AM 86.0 °F 96.0 °F 75.9 °F 72% 30.01 in 10.0 mi NE 10.4 mph - N/A   Mostly Cloudy
10:53 AM 86.0 °F 95.1 °F 75.0 °F 70% 30.01 in 10.0 mi ENE 8.1 mph - N/A   Mostly Cloudy
11:00 AM 86.0 °F 96.0 °F 75.9 °F 72% 30.01 in 10.0 mi ENE 8.1 mph - N/A   Partly Cloudy
11:53 AM 87.1 °F 95.4 °F 73.9 °F 65% 30.00 in 10.0 mi East 8.1 mph - N/A   Mostly Cloudy
12:53 PM 89.1 °F 98.0 °F 73.9 °F 61% 29.97 in 10.0 mi NE 8.1 mph - N/A   Mostly Cloudy
1:00 PM 90.0 °F 100.2 °F 75.0 °F 61% 29.96 in 10.0 mi Variable 6.9 mph - N/A   Scattered Clouds
1:53 PM 90.0 °F 97.9 °F 73.0 °F 57% 29.95 in 10.0 mi NNE 5.8 mph - N/A   Scattered Clouds
2:53 PM 91.9 °F 103.9 °F 75.9 °F 59% 29.94 in 10.0 mi NNE 6.9 mph - N/A   Mostly Cloudy
3:10 PM 91.0 °F 100.4 °F 73.9 °F 57% 29.93 in 10.0 mi North 10.4 mph - N/A Thunderstorm Scattered Clouds
3:25 PM 90.0 °F 99.0 °F 73.9 °F 59% 29.93 in 10.0 mi North 12.7 mph 17.3 mph N/A Thunderstorm Thunderstorm
3:40 PM 88.0 °F 97.5 °F 75.0 °F 65% 29.92 in 10.0 mi NNE 12.7 mph 20.7 mph N/A   Mostly Cloudy
3:53 PM 88.0 °F 98.5 °F 75.9 °F 67% 29.92 in 10.0 mi NE 12.7 mph - 0.00 in Rain Light Rain
4:16 PM 86.0 °F 96.0 °F 75.9 °F 72% 29.92 in 10.0 mi NE 10.4 mph - 0.00 in Thunderstorm Thunderstorm
4:31 PM 88.0 °F 100.2 °F 77.0 °F 70% 29.92 in 10.0 mi NE 11.5 mph - 0.00 in Thunderstorm Scattered Clouds
4:46 PM 89.1 °F 98.0 °F 73.9 °F 61% 29.92 in 10.0 mi ENE 9.2 mph - 0.00 in   Scattered Clouds
4:53 PM 89.1 °F 98.0 °F 73.9 °F 61% 29.92 in 10.0 mi NE 9.2 mph - 0.00 in   Mostly Cloudy
5:53 PM 90.0 °F 99.0 °F 73.9 °F 59% 29.92 in 10.0 mi ENE 9.2 mph - N/A   Scattered Clouds
6:53 PM 89.1 °F 97.0 °F 73.0 °F 59% 29.90 in 10.0 mi NE 10.4 mph - N/A   Clear
7:53 PM 87.1 °F 95.4 °F 73.9 °F 65% 29.91 in 10.0 mi East 5.8 mph - N/A   Mostly Cloudy
8:53 PM 84.0 °F 91.9 °F 75.0 °F 74% 29.93 in 10.0 mi ENE 6.9 mph - N/A   Scattered Clouds
9:53 PM 82.9 °F 90.8 °F 75.9 °F 79% 29.94 in 10.0 mi ENE 8.1 mph - N/A   Clear
10:53 PM 82.0 °F 89.4 °F 75.9 °F 82% 29.95 in 10.0 mi ENE 3.5 mph - N/A   Clear
11:53 PM 82.0 °F 89.4 °F 75.9 °F 82% 29.95 in 10.0 mi East 5.8 mph - N/A   Clear